Location: Indian Hills
(32.9760°N, 85.9450°W)
Time: 10:27:21
(UTC+00:00)

Hubble Space Telescope - Visible Passes

Search period start: 27 February 2021 00:00
Search period end: 09 March 2021 00:00
Orbit: 536 x 539 km, 28.5° (Epoch: 27 February)

Date Brightness Start Highest point End Pass type
(mag) Time Alt. Az. Time Alt. Az. Time Alt. Az.
03 Mar 3.1 01:40:23 10° SSW 01:41:26 15° SSW 01:41:26 15° SSW visible
04 Mar 2.5 01:29:13 10° SW 01:31:27 22° SSW 01:31:27 22° SSW visible
05 Mar 2.0 01:18:08 10° SW 01:21:25 29° S 01:21:25 29° S visible
06 Mar 1.6 01:07:06 10° SW 01:10:49 33° SSE 01:11:20 32° SSE visible
07 Mar 1.6 00:56:06 10° WSW 00:59:54 37° S 01:01:12 29° SE visible
08 Mar 1.5 00:45:08 10° WSW 00:49:00 40° S 00:51:03 23° ESE visible
08 Mar 3.8 02:26:01 10° WSW 02:26:23 12° WSW 02:26:23 12° WSW visible
